Regional Weather Roundup
Issued by NWS Charleston, WV

Home | Current Version | Previous Version | Graphics & Text | Print | Product List | Glossary On
Versions: 1 2 3 4 5 6 7 8 9 10 11 12 13 14 15 16 17 18 19 20 21 22 23 24 25 26 27
000
ASUS41 KRLX 142110
RWRRLX
West Virginia Regional Weather Roundup
National Weather Service Charleston WV
400 PM EST THU DEC 14 2017

Note: "fair" indicates few or no clouds below 12,000 feet with no
significant weather and/or obstructions to visibility.

WVZ003-142200-
Northern Panhandle of West Virginia

CITY           SKY/WX    TMP DP  RH WIND       PRES   REMARKS
WHEELING       MOCLDY    26  11  52 W3        29.97S
$$

WVZ009-142200-
Northwest West Virginia

CITY           SKY/WX    TMP DP  RH WIND       PRES   REMARKS
PARKERSBURG    CLOUDY    29  16  58 CALM      30.04S
$$

WVZ006-142200-
Western West Virginia

CITY           SKY/WX    TMP DP  RH WIND       PRES   REMARKS
HUNTINGTON     CLOUDY    33  18  53 N3        30.01R
$$

WVZ015-142200-
West Central West Virginia

CITY           SKY/WX    TMP DP  RH WIND       PRES   REMARKS
CHARLESTON     CLOUDY    33  18  53 VRB3      29.99R
$$

WVZ022-031-142200-
North Central West Virginia

CITY           SKY/WX    TMP DP  RH WIND       PRES   REMARKS
CLARKSBURG     CLOUDY    29  20  69 NW9       29.98R
MORGANTOWN     FLURRIES  26  19  74 NW5       29.99R
$$

WVZ025-035-042-045-142200-
Southern West Virginia

CITY           SKY/WX    TMP DP  RH WIND       PRES   REMARKS
BECKLEY        CLOUDY    29  19  66 NW5       29.90R
LOGAN          CLOUDY    32  21  64 CALM      29.95R
BLUEFIELD      CLOUDY    30  20  66 VRB7      29.88R
LEWISBURG      CLOUDY    31  20  64 NW6       29.91R
$$

WVZ047-142200-
Northern Mountains of West Virginia

CITY           SKY/WX    TMP DP  RH WIND       PRES   REMARKS
ELKINS         CLOUDY    27  19  72 N6        29.92R
$$

WVZ052-142200-
Eastern Panhandle of West Virginia

CITY           SKY/WX    TMP DP  RH WIND       PRES   REMARKS
MARTINSBURG    PTCLDY    33  16  49 W12       29.96R
PETERSBURG     CLOUDY    32  21  63 NW6       29.96R
$$




USA.gov is the U.S. government's official web portal to all federal, state and local government web resources and services.